User: anonymous   Login
Location: Mentone
(34.5413°N, 85.5351°W)
Time: 03:12:36
(UTC-06:00)
Language:

AO-Echo - Orbit

View from above orbital plane
View from above orbital plane
View from above satellite
View from above satellite

Ground track
Ground track

The orbit data is extracted from the following two-line orbital elements,

1 28375U 04025K   17023.81149818  .00000022  00000-0  19831-4 0  9999
2 28375  98.3486 320.3521 0082650 359.7784   0.3356 14.41821228661019
Epoch (UTC): 23 January 2017 19:28:33
Eccentricity: 0.0082650
inclination: 98.3486°
perigee height: 693 km
apogee height: 811 km
right ascension of ascending node: 320.3521°
argument of perigee: 359.7784°
revolutions per day: 14.41821228
mean anomaly at epoch: 0.3356°
orbit number at epoch: 66101

The dashed part of the orbit path shows where the satellite is in the earth's shadow,  

DLR